Location: Allos
(44.2333°N, 6.6333°E)
Time: 17:21:14
(UTC+00:00)

CZ-4B R/B - Pass Details

Date: 01 December 2020
Orbit: 389 x 457 km, 97.6° (Epoch: 23 January)

Event Time Altitude Azimuth Distance (km) Brightness Sun altitude
Exits shadow 16:56:59 12° 34° (NNE) 1,362 3.4 -10.7°
Maximum altitude 16:59:35 34° 99° (E) 703 1.9 -11.2°
Drops below altitude 10° 17:02:30 10° 166° (SSE) 1,484 4.1 -11.7°
Sets 17:04:37 0° 176° (S) 2,355 5.2 -12.0°
